Location: Hawks Ness
(60.2333°N, 1.1667°W)
Time: 15:49:27
(UTC+00:00)

ADEOS - Pass Details

Date: 22 October 2019
Orbit: 793 x 794 km, 98.8° (Epoch: 18 November)

Event Time Altitude Azimuth Distance (km) Brightness Sun altitude
Rises 05:33:06 0° 18° (NNE) 3,312 7.0 -11.5°
Reaches altitude 10° 05:35:34 10° 11° (N) 2,378 6.2 -11.2°
Maximum altitude 05:40:22 38° 305° (NW) 1,205 4.1 -10.6°
Drops below altitude 10° 05:45:09 10° 238° (WSW) 2,366 5.6 -10.0°
Enters shadow 05:46:41 - 233° (SW) 2,942 6.1 -9.8°
